Location: Falkner
(32.6954°N, 86.0502°W)
Time: 11:12:42
(UTC+00:00)

Cosmos 1656 - Pass Details

Date: 29 October 2020
Orbit: 797 x 851 km, 71.1° (Epoch: 05 December)

Event Time Altitude Azimuth Distance (km) Brightness Sun altitude
Rises 23:14:59 0° 200° (SSW) 3,318 7.3 -4.8°
Reaches altitude 10° 23:17:23 10° 201° (SSW) 2,397 6.6 -5.3°
Maximum altitude 23:22:53 85° 289° (WNW) 832 3.8 -6.4°
Drops below altitude 10° 23:28:30 10° 19° (NNE) 2,448 5.8 -7.6°
Sets 23:30:58 0° 20° (NNE) 3,393 6.5 -8.1°
